Location: Sortland
(68.7020°N, 15.4240°E)
Time: 02:25:32
(UTC+01:00)

Envisat - Visible Passes

Search period start: 19 March 2019 00:00
Search period end: 29 March 2019 00:00
Orbit: 764 x 766 km, 98.2° (Epoch: 18 March)

Date Brightness Start Highest point End Pass type
(mag) Time Alt. Az. Time Alt. Az. Time Alt. Az.
19 Mar 5.8 19:58:32 10° SW 20:02:24 21° W 20:06:17 10° NNW visible
20 Mar 5.1 19:20:38 10° SSW 19:25:09 31° W 19:29:41 10° NNW visible
20 Mar 6.4 21:04:35 10° W 21:05:54 11° WNW 21:07:12 10° NW visible
21 Mar 5.9 20:25:12 10° WSW 20:28:23 16° WNW 20:31:33 10° NW visible
22 Mar 5.6 19:46:56 10° SW 19:51:01 24° W 19:55:08 10° NNW visible
23 Mar 6.2 20:52:21 10° W 20:54:26 12° WNW 20:56:31 10° NW visible
24 Mar 5.9 20:13:28 10° WSW 20:16:58 18° WNW 20:20:29 10° NW visible
25 Mar 5.5 19:35:22 10° SW 19:39:39 27° W 19:43:58 10° NNW visible
26 Mar 6.1 20:40:23 10° WSW 20:42:59 14° WNW 20:45:36 10° NW visible
27 Mar 5.8 20:01:48 10° SW 20:05:34 20° W 20:09:21 10° NNW visible
28 Mar 6.5 21:08:17 10° WNW 21:09:05 10° WNW 21:09:54 10° NW visible
